カタログに戻る

STARLINK-30554

運用中通信VLEO
NORAD 58048·PAYLOAD·🇺🇸 United States

打ち上げ Oct 9, 2023 から Vandenberg Space Force Base

Loading…

次のパス (今後24時間)

TLE

最新Source: CelesTrak SupGP

元期: Sep 14, 2026, 22:16 UTC

1 58048C 23156W   26257.92826389 -.00012819  00000+0 -37877-3 0  2575
2 58048  53.1582   7.4231 0001308  78.0437 191.0427 15.34393924    17

AllMySatでSTARLINK-30554をリアルタイム追跡

Download on the App Store